World > North America > United States > New York > Andes   Town of Andes, NY

Andes, NY Hourly Weather Updates

Feedback E-mail the Weather

Quick Clicks

Andes, NY Weather Maps

°F °C°F °C
Andes Weather Map
UTC Time: 6/15/2024, 09:44
Your Time:

Andes, NY Regional Weather

Expires:202406151000;;049555
ASUS41 KALY 150910
RWRALY

NEW YORK STATE HOURLY WEATHER ROUNDUP
NATIONAL WEATHER SERVICE ALBANY NY
500 AM EDT SAT JUN 15 2024

NOTE: "FAIR" INDICATES FEW OR NO CLOUDS BELOW 12,000 FEET WITH NO
SIGNIFICANT WEATHER AND/OR NO OBSTRUCTIONS TO VISIBILITY.


NYZ032-033-038>043-046>054-057>066-NYZ062>081-082-084-151000-
EAST

  
CITY           SKY/WX    TMP DP  RH WIND       PRES   REMARKS
ALBANY         MOCLDY    62  53  72 N6        29.95R                  
GLENS FALLS    MOCLDY    61  47  59 NE8       29.97R                  
POUGHKEEPSIE   FOG       58  57  97 CALM      29.91R VSB 1/4          
MONTGOMERY     FOG       54  54 100 CALM      29.92R VSB 1            
WHITE PLAINS   PTCLDY    64  59  83 NW13      29.89R                  
ISLIP          CLEAR     65  62  90 NW10      29.86R                  
NEW YORK CITY  PTCLDY    67  60  78 NW5       29.88R                  
CENTRAL PARK   PTCLDY    66  63  90 CALM      29.92R                  
$$


SKY/WX - Weather  TMP - Temperature  DP - Dew Point  RH - Humidity
WIND - Wind Direction/Speed PRES - Barometric Pressure VSB - Visibility
WCI - Wind Chill Index E13G22 Wind - East Wind 13 mph/Gusts of 22 mph

Trending Headlines

Trending Entertainment Headlines

Andes Radar Loop

Use the map search tool if you want to place a location marker on the radar map...

Andes Quick Facts

National Two Day Weather Forecast


E-mail the Andes Weather Forecast

Voice your opinion or tell us about page issues...